Flag for Germany Weather past 2 weeks in Cottbus, Brandenburg, Germany

Now
33 °F

Low clouds.


Feels Like: 33 °F
Forecast: 32 / 37 °F
Wind: 1 mph from Northwest

Location: Cottbus

Current Time: Jan 25, 2015 at 9:55:10 PM

Latest Report: Jan 25, 2015 at 9:00 PM


Visibility: 6 mi

Pressure: 30.32 "Hg

Humidity: 94%

Dew point: 32 °F

Location of CottbusLocation

Historic Weather in Cottbus — Graph

°F

Cottbus temperature yesterday

Maximum temperature yesterday: 31 °F (at 3:00 PM)
Minimum temperature yesterday: 30 °F (at 5:00 AM)
Average temperature yesterday: 31 °F

Past Weeks' High & Low Weather Summary

 TemperatureHumidityPressure
High56 °F (Jan 13, 9:00 PM)100% (Jan 17, 9:00 PM)30.32 "Hg (Jan 17, 9:00 PM)
Low25 °F (Jan 19, 3:00 AM)41% (Jan 13, 8:00 PM)29.64 "Hg (Jan 10, 9:00 PM)
Average37 °F83%29.96 "Hg
* Reported Jan 10 9:00 PM — Jan 25 9:00 PM, Cottbus, Weather by CustomWeather, © 2014

Note: Actual official high and low records may vary slightly from our data, if they occured in-between our weather recording intervals... More about our weather records

Advertising

Cottbus weather history for previous 24 hours

 ConditionsComfort  
Time TempWeatherWind HumidityBarometerVisibility
9:00 PM
Jan 25
33 °FLow clouds.1 mph94%30.32 "Hg6 mi
8:00 PM34 °FLow clouds.1 mph92%30.32 "Hg7 mi
7:00 PM33 °FOvercast.1 mph92%30.31 "Hg10 mi
6:00 PM33 °FLow clouds.1 mph96%30.30 "Hg6 mi
5:00 PM34 °FLow clouds.2 mph94%30.29 "Hg7 mi
4:00 PM35 °FDrizzle. Low clouds.2 mph93%30.28 "Hg6 mi
3:00 PM35 °FLow clouds.3 mph91%30.27 "Hg10 mi
2:00 PM35 °FOvercast.2 mph90%30.26 "Hg11 mi
1:00 PM35 °FLow clouds.3 mph91%30.26 "Hg8 mi
12:00 PM35 °FLow clouds.3 mph93%30.27 "Hg7 mi
11:00 AM34 °FLow clouds.3 mph94%30.27 "Hg6 mi
10:00 AM34 °FFog.2 mph96%30.26 "Hg4 mi
9:00 AM33 °FFog.2 mph97%30.24 "Hg4 mi
8:00 AM33 °FFog.3 mph96%30.23 "Hg4 mi
7:00 AM33 °FFog.3 mph98%30.21 "Hg3 mi
6:00 AM33 °FLow clouds.2 mph100%30.19 "Hg1 mi
4:00 AM32 °FFog.2 mph99%30.16 "Hg1 mi
3:00 AM32 °FLow clouds.2 mph98%30.15 "Hg2 mi
2:00 AM31 °FSnow flurries. Low clouds.2 mph98%30.14 "Hg1 mi
1:00 AM31 °FFog.2 mph95%30.14 "Hg2 mi
12:00 AM31 °FFog.2 mph95%30.13 "Hg3 mi
11:00 PM
Jan 24
30 °FFog.2 mph94%30.12 "Hg3 mi
10:00 PM31 °FFog.2 mph94%30.13 "Hg4 mi
9:00 PM30 °FFog.2 mph95%30.12 "Hg2 mi
Weather by CustomWeather, © 2014

See weather overviewHow to use our weather pages